Flag for Poland Weather past 2 weeks in Lidzbark Warmiński, Poland

Now
31 °F

Chilly.


Feels Like: 31 °F
Forecast: 40 / 47 °F
Wind: 1 mph from Southeast

Location: Ketrzyn

Current Time: Mar 29, 2015 at 3:46:53 AM

Latest Report: Mar 29, 2015 at 3:00 AM


Visibility: 1 mi

Pressure: 29.93 "Hg

Humidity: 97%

Dew point: 31 °F

Location of Lidzbark WarmińskiLocation

Historic Weather in Lidzbark Warmiński — Graph

°F

Lidzbark Warmiński temperature yesterday

Maximum temperature yesterday: 48 °F (at 1:00 PM)
Minimum temperature yesterday: 35 °F (at 11:00 PM)
Average temperature yesterday: 41 °F

Past Weeks' High & Low Weather Summary

 TemperatureHumidityPressure
High61 °F (Mar 26, 1:00 PM)97% (Mar 27, 7:00 PM)30.82 "Hg (Mar 27, 7:00 PM)
Low22 °F (Mar 22, 6:00 AM)25% (Mar 19, 3:00 PM)29.75 "Hg (Mar 26, 5:00 PM)
Average42 °F64%30.23 "Hg
* Reported Mar 14 1:00 AM — Mar 29 1:00 AM, Lidzbark Warmiński, Weather by CustomWeather, © 2015

Note: Actual official high and low records may vary slightly from our data, if they occured in-between our weather recording intervals... More about our weather records

Advertising

Lidzbark Warmiński weather history for previous 24 hours

 ConditionsComfort  
Time TempWeatherWind HumidityBarometerVisibility
1:00 AM
Sun, Mar 29
31 °FChilly.1 mph96%29.95 "Hg1 mi
12:00 AM32 °FFog.1 mph95%29.96 "Hg2 mi
11:00 PM
Sat, Mar 28
35 °FFog.1 mph92%29.97 "Hg5 mi
9:00 PM39 °FChilly.3 mph83%29.99 "Hg6 mi
8:00 PM40 °FFog.1 mph89%30.01 "Hg3 mi
7:00 PM42 °FFog.2 mph80%30.01 "Hg3 mi
6:00 PM43 °FFog.3 mph76%30.00 "Hg4 mi
5:00 PM44 °FQuite cool.3 mph79%29.99 "Hg3 mi
4:00 PM46 °FFog.3 mph72%29.98 "Hg5 mi
3:00 PM48 °FCool.3 mph66%29.98 "Hg7 mi
2:00 PM47 °FFog.3 mph74%29.99 "Hg6 mi
1:00 PM48 °FCool.5 mph67%30.00 "Hg9 mi
12:00 PM46 °FFog.5 mph73%30.01 "Hg6 mi
11:00 AM44 °FFog.3 mph78%30.01 "Hg5 mi
10:00 AM43 °FFog.3 mph84%30.01 "Hg4 mi
9:00 AM42 °FFog.2 mph88%30.01 "Hg3 mi
8:00 AM40 °FFog.2 mph93%30.00 "Hg3 mi
7:00 AM39 °FRain showers. Cloudy.2 mph95%30.00 "Hg3 mi
6:00 AM37 °FSprinkles. Cloudy.2 mph96%30.00 "Hg2 mi
5:00 AM37 °FFog.2 mph96%29.99 "Hg3 mi
3:00 AM37 °FFog.3 mph96%29.97 "Hg4 mi
Weather by CustomWeather, © 2015

See weather overviewHow to use our weather pages